TAM3924 SBSP-SBRJ

Flight info

Callsign TAM3924
Flight time 0h 36m
Altitude 25000
Route NIBRU UZ171 KEVUN
Aircraft A319/M-SDE3FGHIRWY/LB1

Departure

Time 2026-05-04 17:04
Airport Congonhas–Deputado Freitas Nobre Airport (SBSP)

Arrival

Time 2026-05-04 17:41
Airport Santos Dumont Airport (SBRJ)
Time Latitude Longitude Altitude Speed Heading
2026-05-04 16:46 -23.62720 -46.65826 2601 ft 0 kts 237°
2026-05-04 16:55 -23.62717 -46.65821 2601 ft 4 kts 237°
2026-05-04 16:56 -23.62683 -46.65796 2601 ft 4 kts 162°
2026-05-04 16:56 -23.62643 -46.65819 2601 ft 0 kts 147°
2026-05-04 17:00 -23.62656 -46.65804 2601 ft 2 kts 122°
2026-05-04 17:00 -23.62745 -46.65700 2602 ft 11 kts 147°
2026-05-04 17:01 -23.62892 -46.65599 2603 ft 14 kts 148°
2026-05-04 17:01 -23.63088 -46.65499 2602 ft 18 kts 151°
2026-05-04 17:02 -23.63270 -46.65372 2602 ft 20 kts 148°
2026-05-04 17:02 -23.63498 -46.65212 2600 ft 11 kts 137°
2026-05-04 17:03 -23.63483 -46.65145 2599 ft 12 kts 28°
2026-05-04 17:03 -23.63429 -46.65119 2601 ft 6 kts 352°
2026-05-04 17:03 -23.63386 -46.65149 2604 ft 27 kts 327°
2026-05-04 17:04 -23.62205 -46.65968 2685 ft 155 kts 328°
2026-05-04 17:04 -23.60350 -46.67017 4011 ft 156 kts 356°
2026-05-04 17:05 -23.58598 -46.65574 4451 ft 191 kts 81°
2026-05-04 17:05 -23.59394 -46.62530 5090 ft 229 kts 114°
2026-05-04 17:06 -23.60526 -46.59096 6287 ft 261 kts 104°
2026-05-04 17:06 -23.61025 -46.57110 6862 ft 280 kts 103°
2026-05-04 17:07 -23.63276 -46.53563 8541 ft 298 kts 136°
2026-05-04 17:07 -23.64276 -46.52522 9124 ft 301 kts 136°
2026-05-04 17:07 -23.66318 -46.50372 10247 ft 308 kts 137°
2026-05-04 17:07 -23.67884 -46.48685 10737 ft 328 kts 134°
2026-05-04 17:08 -23.69285 -46.46607 10992 ft 352 kts 121°
2026-05-04 17:08 -23.70690 -46.41365 12291 ft 370 kts 94°
2026-05-04 17:08 -23.70560 -46.38588 13014 ft 375 kts 82°
2026-05-04 17:09 -23.70166 -46.35765 13696 ft 379 kts 82°
2026-05-04 17:09 -23.69758 -46.32870 14344 ft 384 kts 82°
2026-05-04 17:09 -23.69345 -46.29972 14967 ft 389 kts 82°
2026-05-04 17:10 -23.68496 -46.24071 16212 ft 398 kts 82°
2026-05-04 17:10 -23.67192 -46.14957 17992 ft 412 kts 82°
2026-05-04 17:11 -23.66752 -46.11894 18565 ft 417 kts 81°
2026-05-04 17:11 -23.66299 -46.08754 19148 ft 421 kts 81°
2026-05-04 17:11 -23.65381 -46.02374 20281 ft 430 kts 82°
2026-05-04 17:12 -23.64917 -45.99135 20844 ft 434 kts 82°
2026-05-04 17:12 -23.63980 -45.92564 21926 ft 442 kts 82°
2026-05-04 17:13 -23.62520 -45.82504 23380 ft 453 kts 81°
2026-05-04 17:14 -23.61011 -45.72201 24694 ft 464 kts 82°
2026-05-04 17:14 -23.60506 -45.68714 25062 ft 467 kts 82°
2026-05-04 17:14 -23.59490 -45.61717 25185 ft 467 kts 82°
2026-05-04 17:15 -23.58980 -45.58225 25184 ft 466 kts 82°
2026-05-04 17:15 -23.57951 -45.51255 25182 ft 466 kts 81°
2026-05-04 17:16 -23.56863 -45.44290 25182 ft 466 kts 79°
2026-05-04 17:16 -23.54653 -45.33949 25178 ft 467 kts 76°
2026-05-04 17:17 -23.53880 -45.30567 25176 ft 467 kts 76°
2026-05-04 17:17 -23.51632 -45.20248 25171 ft 467 kts 77°
2026-05-04 17:18 -23.50905 -45.16801 25170 ft 467 kts 77°
2026-05-04 17:18 -23.49452 -45.09905 25165 ft 467 kts 77°
2026-05-04 17:19 -23.47992 -45.03003 25167 ft 468 kts 77°
2026-05-04 17:19 -23.46510 -44.96104 25167 ft 468 kts 76°
2026-05-04 17:20 -23.45002 -44.89209 25169 ft 468 kts 76°
2026-05-04 17:20 -23.43462 -44.82321 25116 ft 469 kts 76°
2026-05-04 17:20 -23.42683 -44.78869 24865 ft 470 kts 76°
2026-05-04 17:21 -23.41150 -44.72032 23897 ft 466 kts 76°
2026-05-04 17:21 -23.39632 -44.65222 22573 ft 459 kts 76°
2026-05-04 17:22 -23.38878 -44.61861 21941 ft 455 kts 76°
2026-05-04 17:22 -23.38133 -44.58533 21336 ft 450 kts 76°
2026-05-04 17:23 -23.35943 -44.48742 19572 ft 438 kts 76°
2026-05-04 17:23 -23.35217 -44.45529 18995 ft 434 kts 76°
2026-05-04 17:23 -23.33271 -44.39415 17877 ft 424 kts 63°
2026-05-04 17:24 -23.32021 -44.36528 17297 ft 419 kts 64°
2026-05-04 17:24 -23.28386 -44.28055 15537 ft 404 kts 64°
2026-05-04 17:25 -23.27204 -44.25302 14951 ft 399 kts 64°
2026-05-04 17:25 -23.24878 -44.19901 13768 ft 390 kts 64°
2026-05-04 17:26 -23.22606 -44.14633 12590 ft 380 kts 64°
2026-05-04 17:26 -23.19295 -44.06984 10829 ft 366 kts 63°
2026-05-04 17:27 -23.17128 -44.02234 10513 ft 335 kts 62°
2026-05-04 17:27 -23.15124 -43.97890 10227 ft 310 kts 63°
2026-05-04 17:28 -23.13324 -43.93710 9800 ft 302 kts 64°
2026-05-04 17:29 -23.10705 -43.87530 9484 ft 299 kts 64°
2026-05-04 17:29 -23.08097 -43.81408 9030 ft 296 kts 64°
2026-05-04 17:30 -23.05514 -43.75390 8544 ft 293 kts 64°
2026-05-04 17:31 -23.03798 -43.71401 8245 ft 290 kts 64°
2026-05-04 17:31 -23.01239 -43.65499 7528 ft 285 kts 64°
2026-05-04 17:32 -22.99543 -43.61635 6928 ft 281 kts 64°
2026-05-04 17:33 -22.97043 -43.55942 6440 ft 275 kts 64°
2026-05-04 17:33 -22.96213 -43.54069 6265 ft 275 kts 64°
2026-05-04 17:34 -22.93762 -43.48469 5619 ft 272 kts 65°
2026-05-04 17:34 -22.92979 -43.46612 5306 ft 270 kts 66°
2026-05-04 17:35 -22.90656 -43.41075 4433 ft 265 kts 65°
2026-05-04 17:35 -22.89138 -43.37491 3867 ft 255 kts 65°
2026-05-04 17:35 -22.88415 -43.35785 3601 ft 242 kts 66°
2026-05-04 17:36 -22.87924 -43.34093 3365 ft 229 kts 74°
2026-05-04 17:36 -22.87516 -43.32479 3123 ft 215 kts 74°
2026-05-04 17:36 -22.87131 -43.30965 2886 ft 203 kts 74°
2026-05-04 17:36 -22.86791 -43.29527 2681 ft 190 kts 82°
2026-05-04 17:37 -22.86746 -43.28152 2486 ft 178 kts 90°
2026-05-04 17:37 -22.86754 -43.26852 2276 ft 166 kts 90°
2026-05-04 17:37 -22.86759 -43.25663 2109 ft 148 kts 91°
2026-05-04 17:37 -22.86764 -43.24606 1956 ft 135 kts 90°
2026-05-04 17:38 -22.86769 -43.23592 1809 ft 133 kts 91°
2026-05-04 17:38 -22.86773 -43.22588 1642 ft 133 kts 91°
2026-05-04 17:38 -22.86778 -43.21590 1469 ft 132 kts 92°
2026-05-04 17:38 -22.86780 -43.20598 1296 ft 131 kts 94°
2026-05-04 17:39 -22.86787 -43.18618 948 ft 131 kts 95°
2026-05-04 17:39 -22.87018 -43.17687 775 ft 126 kts 121°
2026-05-04 17:39 -22.87552 -43.16964 614 ft 122 kts 142°
2026-05-04 17:40 -22.88288 -43.16528 458 ft 121 kts 162°
2026-05-04 17:40 -22.89121 -43.16405 312 ft 122 kts 175°
2026-05-04 17:40 -22.89955 -43.16354 142 ft 121 kts 175°
2026-05-04 17:40 -22.90788 -43.16298 27 ft 112 kts 176°
2026-05-04 17:41 -22.91348 -43.16262 21 ft 39 kts 176°
2026-05-04 17:41 -22.91505 -43.16253 20 ft 8 kts 184°
2026-05-04 17:41 -22.91524 -43.16317 20 ft 11 kts 268°
2026-05-04 17:41 -22.91502 -43.16401 21 ft 12 kts 315°
2026-05-04 17:42 -22.91448 -43.16457 22 ft 9 kts 317°
2026-05-04 17:42 -22.91396 -43.16501 22 ft 8 kts 340°
2026-05-04 17:42 -22.91333 -43.16506 22 ft 10 kts 356°
2026-05-04 17:42 -22.91254 -43.16511 22 ft 12 kts 357°
2026-05-04 17:43 -22.91178 -43.16515 22 ft 9 kts 356°
2026-05-04 17:43 -22.91133 -43.16525 22 ft 4 kts 313°
2026-05-04 17:43 -22.91135 -43.16562 22 ft 6 kts 265°
2026-05-04 17:43 -22.91136 -43.16584 22 ft 1 kts 267°
2026-05-04 17:44 -22.91136 -43.16590 22 ft 0 kts 267°